SCOUT B DEB, 29170

Orbit data source: Space-Track

SCOUT B DEB, 29170 is space debris in LEO originally from a launch on Tue, 10 Aug 1965 UTC launched from the Wallops Island (WLPIS). Debris objects in space refer to the collection of defunct objects orbiting the Earth. Examples of debris include non-operational satellites, rocket bodies, and fragments generated from explosions, collisions, or faulty payload assembly.

Loading next visibility...
Identifier
29170, 1965-063U
Orbit
LEO
Country
Flag of USUS
Related business
Manufacturer
Unknown
Mission
Spacecraft
Bus & Motor
Unknown
Mass
Unknown
Launch date (UTC)
1965-08-10 (61 years ago)
Launch vehicle
Unknown
Launch site
Wallops Island (WLPIS)
Object type
Payload
Rocket body
Debris
Shape & HBR
Unknown shape, 0.1 m
Radar Cross Section
Small (<0.1 m²)

Expand to show TLE details & history
Last TLE update: 1 week ago

TLE from 1 week ago
0 SCOUT B DEB
1 29170U 65063U   26092.48935839  .00001378  00000-0  88871-2 0  9990
2 29170  69.2301  10.0273 0751977  56.1916 112.6930 11.90401721 73298
Epoch: 2026-04-02T11:44Z
TLE epoch observation values (Epoch: 2026-04-02T11:44:40.564Z)
Latitude
3.16565°
Longitude
-178.17523°
Altitude
1,998.17 km
Speed
6.783 km/s
True Right ascension
12h 35m 19s
True Declination
3° 08' 58"
Sunlit
Object was in full shadow at epoch
Visualization orbit readout
Latitude
Unknown
Longitude
Unknown
Altitude
Unknown
Speed
Unknown
Apparent Right ascension
Unknown
Apparent Declination
Unknown
Sunlit
N/A
Visualization observer readout
Local Sidereal Time
01:59:29
Azimuth
Unknown
Elevation
Unknown
Doppler factor
Unknown
Orbital elements
Apogee altitude
2,331.564 km
Perigee altitude
1,113.277 km
Semi-major axis
8,100.558 km
Eccentricity
0.0752
Inclination
69.2301°
RAAN
10.0273°
Arg. of periapsis
56.1916°
True anomaly
120.3417°
Mean anomaly
112.693°
Eccentric anomaly
116.54725°
Mean motion
2.97694 °/min
Orbital period
120.93 mins
BSTAR
0.0088871
Loading maneuver chart data...
Computing Atmospheric mass density...
Loading historical data...
Loading historical data...
Loading historical data...
Loading historical data...
Loading historical data...
Loading historical data...
Loading historical data...

Documentation

Showing up to 5 results
|